Location: Eldred Sherwood Park Lake Dam
(42.9416°N, 93.5655°W)
Time: 08:24:54
(UTC+00:00)

Tiros 1 - Pass Details

Date: 10 November 2024
Orbit: 622 x 653 km, 48.4° (Epoch: 06 December)

Event Time Altitude Azimuth Distance (km) Brightness Sun altitude
Rises 02:13:43 0° 265° (W) 2,959 11.5 -36.3°
Reaches altitude 10° 02:16:06 10° 271° (W) 2,053 10.5 -36.7°
Enters shadow 02:17:27 18° 277° (W) 1,570 9.7 -36.9°
